Regional Weather Roundup
Issued by NWS

Home | Current Version | Previous Version | Text Only | Print | Product List | Glossary On
Versions: 1 2 3 4 5 6 7 8 9 10 11 12 13 14 15 16 17 18 19 20 21 22 23 24 25 26 27 28 29 30 31 32 33 34 35 36 37 38 39 40 41 42 43 44 45 46 47 48 49 50
000
ASUS43 KLSX 260807
RWRMO

WEATHER SUMMARY FOR MISSOURI
NATIONAL WEATHER SERVICE SPRINGFIELD MO
300 AM CDT TUE SEP 26 2017

NOTE: "FAIR" INDICATES FEW OR NO CLOUDS BELOW 12,000 FEET WITH NO
       SIGNIFICANT WEATHER AND/OR OBSTRUCTIONS TO VISIBILITY.
       CURRENT SKY AND/OR WEATHER CONDITIONS ARE NOT AVAILABLE FOR
       CHILLICOTHE AND FARMINGTON.

MOZ001>031-035>038-043-044-053-054-260900-
...NORTHERN AND WESTERN MISSOURI...

CITY           SKY/WX    TMP DP  RH WIND       PRES   REMARKS
KANSAS CTY INT CLOUDY    67  64  90 NE5       29.94S
KANSAS C DTWN  CLOUDY    70  64  81 N5        29.92S
LEE`S SUMMIT   CLOUDY    67  64  90 NE3       29.94F
ST JOSEPH      CLOUDY    66  66 100 CALM      29.94R
CHILLICOTHE      N/A     69  67  93 N3        29.94S
KIRKSVILLE     CLOUDY    69  65  86 NW5       29.94R

$$
MOZ066>068-077>081-088>096-101>105-260900-
...SOUTHWEST MISSOURI...

CITY           SKY/WX    TMP DP  RH WIND       PRES   REMARKS
SPRINGFIELD    CLEAR     69  63  81 SE9       29.95S
JOPLIN         CLOUDY    69  67  93 NW3       29.94R
BRANSON        CLEAR     68  63  83 CALM      29.97F

$$
MOZ032>034-039>042-045>050-055>058-069>072-260900-
...CENTRAL MISSOURI...

CITY           SKY/WX    TMP DP  RH WIND       PRES   REMARKS
COLUMBIA       MOCLDY    71  64  78 S9        29.94S
JEFFERSON CITY PTCLDY    70  62  76 E3        29.93S
ROLLA          PTCLDY    68  62  81 S7        29.97S
SEDALIA        CLOUDY    71  66  84 CALM      29.94S
WHITEMAN AFB   PTCLDY    67  67 100 CALM      29.93R
WARRENSBURG    CLOUDY    66  63  88 CALM      29.93S
OSAGE BEACH    CLEAR     69  63  81 S6        29.95

$$
MOZ051-052-059>065-260900-
...EAST CENTRAL MISSOURI...

CITY           SKY/WX    TMP DP  RH WIND       PRES   REMARKS
ST LOUIS INTL  MOCLDY    75  63  66 S5        29.95F
SPIRIT OF STL  CLEAR     67  65  93 CALM      29.94S
ST CHARLES     PTCLDY    67  66  97 CALM      29.94S

$$
MOZ072>076-082>087-097>100-106>115-260900-
...SOUTH CENTRAL AND SOUTHEAST MISSOURI...

CITY           SKY/WX    TMP DP  RH WIND       PRES   REMARKS
CAPE GIRARDEAU CLEAR     63  61  93 CALM      29.96S
FARMINGTON     CLEAR     63  61  93 CALM      29.99S
POPLAR BLUFF   CLEAR     64  63  96 CALM      29.95S
WEST PLAINS    CLEAR     63  61  93 CALM      29.99S

$$


USA.gov is the U.S. government's official web portal to all federal, state and local government web resources and services.